ISS - Orbit

View from above orbital plane
View from above orbital plane
View from above satellite
View from above satellite

Ground track
Ground track

The orbit data is extracted from the following two-line orbital elements,

1 25544U 98067A   13143.37641818  .00014065  00000-0  24971-3 0  8643
2 25544 051.6489 231.3592 0009524 348.0618 094.4554 15.50446910830850
Epoch (UTC): 23 May 2013 09:02:02
Eccentricity: 0.0009524
inclination: 51.6489°
perigee height: 409 km
apogee height: 422 km
right ascension of ascending node: 231.3592°
argument of perigee: 348.0618°
revolutions per day: 15.50446910
mean anomaly at epoch: 94.4554°
orbit number at epoch: 83085

The dashed part of the orbit path shows where the satellite is in the earth's shadow,  

Developed and maintained by Chris Peat, Heavens-Above GmbH. Please read the updated FAQ before sending e-mail. Imprint. DLR